| time (UTC) | temp F | wind direction | speed MPH | gust MPH | rain 1hr in | rain 24hr in | rain mn in | humidity % | barometer mb |
| 20260506223525 | 80 | 270 | 1.0 | 16.0 | 0.00 | 0.00 | 0.01 | 79 | 1002.4 |
| 20260506223015 | 80 | 0 | 5.0 | 16.0 | 0.00 | 0.00 | 0.01 | 78 | 1002.4 |
| 20260506221954 | 80 | 0 | 7.0 | 15.0 | 0.00 | 0.00 | 0.01 | 78 | 1002.2 |
| 20260506221445 | 80 | 45 | 6.0 | 15.0 | 0.00 | 0.00 | 0.01 | 78 | 1002.5 |
| 20260506220424 | 81 | 0 | 4.0 | 15.0 | 0.00 | 0.00 | 0.01 | 77 | 1002.3 |
| 20260506215914 | 81 | 0 | 8.0 | 17.0 | 0.00 | 0.00 | 0.01 | 77 | 1002.5 |
| 20260506214854 | 81 | 0 | 7.0 | 15.0 | 0.00 | 0.00 | 0.01 | 77 | 1002.2 |
| 20260506214344 | 81 | 0 | 2.0 | 15.0 | 0.00 | 0.00 | 0.01 | 77 | 1002.4 |
| 20260506213833 | 81 | 90 | 4.0 | 15.0 | 0.00 | 0.00 | 0.01 | 76 | 1002.4 |
| 20260506213323 | 81 | 0 | 9.0 | 15.0 | 0.00 | 0.00 | 0.01 | 76 | 1002.4 |
| 20260506212814 | 82 | 0 | 6.0 | 13.0 | 0.00 | 0.00 | 0.01 | 76 | 1002.3 |
| 20260506212306 | 82 | 0 | 7.0 | 13.0 | 0.00 | 0.00 | 0.01 | 75 | 1002.2 |
| 20260506211802 | 82 | 0 | 4.0 | 19.0 | 0.00 | 0.00 | 0.01 | 74 | 1002.2 |
| 20260506211243 | 82 | 90 | 8.0 | 19.0 | 0.00 | 0.00 | 0.01 | 74 | 1002.1 |
| 20260506210223 | 83 | 0 | 7.0 | 16.0 | 0.00 | 0.00 | 0.01 | 73 | 1002.0 |
| 20260506205713 | 83 | 0 | 7.0 | 17.0 | 0.00 | 0.00 | 0.01 | 73 | 1002.0 |
| 20260506205202 | 83 | 0 | 8.0 | 18.0 | 0.00 | 0.00 | 0.01 | 72 | 1002.1 |
| 20260506204652 | 83 | 0 | 8.0 | 18.0 | 0.00 | 0.00 | 0.01 | 72 | 1002.1 |
| 20260506204143 | 83 | 0 | 5.0 | 17.0 | 0.00 | 0.00 | 0.01 | 72 | 1002.1 |
| 20260506203122 | 83 | 0 | 5.0 | 18.0 | 0.00 | 0.00 | 0.01 | 72 | 1002.2 |
| 20260506202612 | 83 | 0 | 5.0 | 18.0 | 0.00 | 0.00 | 0.01 | 72 | 1002.4 |
| 20260506202102 | 83 | 0 | 5.0 | 14.0 | 0.00 | 0.00 | 0.01 | 72 | 1002.3 |
| 20260506201551 | 83 | 0 | 4.0 | 15.0 | 0.00 | 0.00 | 0.01 | 73 | 1002.6 |
| 20260506201041 | 84 | 0 | 5.0 | 15.0 | 0.00 | 0.00 | 0.01 | 72 | 1002.4 |
| 20260506200536 | 84 | 270 | 3.0 | 17.0 | 0.00 | 0.00 | 0.01 | 71 | 1002.6 |
| 20260506195512 | 84 | 90 | 6.0 | 20.0 | 0.00 | 0.00 | 0.01 | 70 | 1002.7 |
| 20260506195001 | 84 | 0 | 9.0 | 22.0 | 0.00 | 0.00 | 0.01 | 70 | 1002.7 |
| 20260506194452 | 84 | 0 | 8.0 | 22.0 | 0.00 | 0.00 | 0.01 | 70 | 1002.6 |
| 20260506193941 | 85 | 135 | 11.0 | 22.0 | 0.00 | 0.00 | 0.01 | 69 | 1002.3 |
| 20260506193431 | 85 | 0 | 7.0 | 18.0 | 0.00 | 0.00 | 0.01 | 70 | 1002.7 |
| 20260506192920 | 85 | 90 | 4.0 | 18.0 | 0.00 | 0.00 | 0.01 | 69 | 1002.8 |
| 20260506192411 | 85 | 0 | 6.0 | 17.0 | 0.00 | 0.00 | 0.01 | 69 | 1002.5 |
| 20260506191350 | 85 | 0 | 4.0 | 21.0 | 0.00 | 0.00 | 0.01 | 69 | 1003.0 |
| 20260506190840 | 86 | 315 | 8.0 | 25.0 | 0.00 | 0.00 | 0.01 | 68 | 1002.7 |
| 20260506185820 | 86 | 0 | 7.0 | 21.0 | 0.00 | 0.00 | 0.01 | 66 | 1002.9 |
| 20260506184800 | 86 | 0 | 7.0 | 17.0 | 0.00 | 0.00 | 0.01 | 67 | 1003.0 |
| 20260506184249 | 86 | 45 | 13.0 | 17.0 | 0.00 | 0.00 | 0.01 | 67 | 1003.1 |
| 20260506183739 | 86 | 315 | 4.0 | 17.0 | 0.00 | 0.00 | 0.01 | 69 | 1003.0 |
| 20260506182723 | 86 | 0 | 10.0 | 27.0 | 0.00 | 0.00 | 0.01 | 66 | 1003.2 |
| 20260506182209 | 87 | 0 | 9.0 | 27.0 | 0.00 | 0.00 | 0.01 | 66 | 1003.3 |
| 20260506181659 | 86 | 315 | 6.0 | 25.0 | 0.00 | 0.00 | 0.01 | 64 | 1003.2 |
| 20260506181149 | 86 | 270 | 11.0 | 17.0 | 0.00 | 0.00 | 0.01 | 65 | 1003.4 |
| 20260506180639 | 86 | 0 | 10.0 | 17.0 | 0.00 | 0.00 | 0.01 | 67 | 1003.6 |
| 20260506175619 | 87 | 0 | 4.0 | 23.0 | 0.00 | 0.00 | 0.01 | 65 | 1003.6 |
| 20260506175108 | 87 | 0 | 10.0 | 23.0 | 0.00 | 0.00 | 0.01 | 64 | 1003.7 |
| 20260506174558 | 87 | 0 | 8.0 | 20.0 | 0.00 | 0.00 | 0.01 | 66 | 1003.8 |
| 20260506174049 | 87 | 0 | 10.0 | 22.0 | 0.00 | 0.00 | 0.01 | 65 | 1003.9 |
| 20260506173539 | 87 | 0 | 8.0 | 22.0 | 0.00 | 0.00 | 0.01 | 63 | 1003.9 |
| 20260506173028 | 87 | 0 | 5.0 | 18.0 | 0.00 | 0.00 | 0.01 | 64 | 1004.1 |
| 20260506172518 | 86 | 0 | 4.0 | 18.0 | 0.00 | 0.00 | 0.01 | 65 | 1004.1 |
| 20260506172007 | 86 | 0 | 8.0 | 17.0 | 0.00 | 0.00 | 0.01 | 65 | 1004.6 |
| 20260506171458 | 86 | 0 | 4.0 | 16.0 | 0.00 | 0.00 | 0.01 | 67 | 1004.5 |
| 20260506170947 | 85 | 0 | 8.0 | 16.0 | 0.00 | 0.00 | 0.01 | 68 | 1004.4 |
| 20260506165928 | 85 | 0 | 8.0 | 16.0 | 0.00 | 0.00 | 0.01 | 67 | 1004.9 |
| 20260506164907 | 86 | 0 | 3.0 | 19.0 | 0.00 | 0.00 | 0.01 | 68 | 1005.0 |
| 20260506164356 | 86 | 90 | 4.0 | 32.0 | 0.00 | 0.00 | 0.01 | 67 | 1005.1 |
| 20260506162316 | 85 | 0 | 6.0 | 18.0 | 0.00 | 0.00 | 0.01 | 66 | 1005.4 |
| 20260506161256 | 85 | 0 | 11.0 | 20.0 | 0.00 | 0.00 | 0.01 | 68 | 1005.6 |
| 20260506160747 | 85 | 0 | 8.0 | 23.0 | 0.00 | 0.00 | 0.01 | 70 | 1005.8 |
| 20260506160236 | 84 | 0 | 8.0 | 23.0 | 0.00 | 0.00 | 0.01 | 71 | 1005.9 |
| 20260506155726 | 84 | 0 | 4.0 | 22.0 | 0.00 | 0.00 | 0.01 | 71 | 1006.2 |
| 20260506155216 | 84 | 270 | 7.0 | 22.0 | 0.00 | 0.00 | 0.01 | 70 | 1006.1 |
| 20260506154705 | 84 | 90 | 6.0 | 21.0 | 0.00 | 0.00 | 0.01 | 71 | 1006.3 |
| 20260506154156 | 83 | 315 | 6.0 | 19.0 | 0.00 | 0.00 | 0.01 | 71 | 1006.4 |
| 20260506153645 | 83 | 0 | 10.0 | 25.0 | 0.00 | 0.00 | 0.01 | 71 | 1006.6 |
| 20260506153135 | 82 | 45 | 10.0 | 25.0 | 0.00 | 0.00 | 0.01 | 71 | 1006.8 |
| 20260506152637 | 82 | 0 | 4.0 | 21.0 | 0.00 | 0.00 | 0.01 | 74 | 1006.7 |
| 20260506152116 | 82 | 0 | 6.0 | 21.0 | 0.00 | 0.00 | 0.01 | 75 | 1006.9 |
| 20260506151605 | 82 | 45 | 4.0 | 17.0 | 0.00 | 0.00 | 0.01 | 75 | 1007.1 |
| 20260506151055 | 82 | 0 | 11.0 | 20.0 | 0.00 | 0.00 | 0.01 | 74 | 1007.2 |
| 20260506150545 | 82 | 0 | 5.0 | 20.0 | 0.00 | 0.00 | 0.01 | 76 | 1007.3 |
| 20260506150035 | 82 | 0 | 7.0 | 19.0 | 0.00 | 0.00 | 0.01 | 75 | 1007.3 |
| 20260506145014 | 82 | 0 | 5.0 | 21.0 | 0.00 | 0.00 | 0.01 | 75 | 1007.6 |
| 20260506143954 | 81 | 0 | 11.0 | 18.0 | 0.00 | 0.00 | 0.01 | 76 | 1007.8 |
| 20260506142934 | 80 | 0 | 8.0 | 17.0 | 0.00 | 0.00 | 0.01 | 77 | 1008.2 |
| 20260506141914 | 80 | 270 | 2.0 | 13.0 | 0.00 | 0.00 | 0.01 | 79 | 1008.6 |
| 20260506141404 | 79 | 0 | 6.0 | 17.0 | 0.00 | 0.00 | 0.01 | 79 | 1008.4 |
| 20260506140853 | 79 | 0 | 5.0 | 17.0 | 0.00 | 0.00 | 0.01 | 80 | 1008.5 |
| 20260506140343 | 78 | 90 | 7.0 | 15.0 | 0.00 | 0.00 | 0.01 | 80 | 1008.6 |
| 20260506135835 | 78 | 0 | 8.0 | 14.0 | 0.00 | 0.00 | 0.01 | 81 | 1008.7 |
| 20260506134813 | 78 | 0 | 5.0 | 17.0 | 0.00 | 0.00 | 0.01 | 82 | 1008.6 |
| 20260506134303 | 77 | 225 | 8.0 | 17.0 | 0.00 | 0.00 | 0.01 | 83 | 1008.5 |
| 20260506132732 | 76 | 45 | 4.0 | 15.0 | 0.00 | 0.00 | 0.01 | 84 | 1008.8 |
| 20260506132222 | 76 | 270 | 4.0 | 17.0 | 0.00 | 0.00 | 0.01 | 84 | 1009.1 |
| 20260506131712 | 76 | 45 | 5.0 | 17.0 | 0.00 | 0.00 | 0.01 | 85 | 1009.2 |
| 20260506131202 | 75 | 0 | 6.0 | 16.0 | 0.00 | 0.00 | 0.01 | 85 | 1009.2 |
| 20260506130653 | 75 | 90 | 7.0 | 15.0 | 0.00 | 0.00 | 0.01 | 85 | 1009.2 |
| 20260506130143 | 74 | 90 | 2.0 | 15.0 | 0.00 | 0.00 | 0.01 | 86 | 1009.4 |
| 20260506125631 | 74 | 45 | 4.0 | 13.0 | 0.00 | 0.00 | 0.01 | 86 | 1009.5 |
| 20260506125122 | 74 | 0 | 4.0 | 12.0 | 0.00 | 0.00 | 0.01 | 87 | 1009.6 |
| 20260506124612 | 73 | 0 | 4.0 | 16.0 | 0.00 | 0.00 | 0.01 | 87 | 1009.7 |
| 20260506124102 | 73 | 45 | 4.0 | 16.0 | 0.00 | 0.00 | 0.01 | 87 | 1009.6 |
| 20260506123558 | 73 | 90 | 3.0 | 15.0 | 0.00 | 0.00 | 0.01 | 87 | 1010.0 |
| 20260506123041 | 73 | 90 | 5.0 | 15.0 | 0.00 | 0.00 | 0.01 | 88 | 1009.9 |
| 20260506122531 | 73 | 0 | 3.0 | 14.0 | 0.00 | 0.00 | 0.01 | 87 | 1009.7 |
| 20260506122021 | 72 | 45 | 8.0 | 14.0 | 0.00 | 0.00 | 0.01 | 87 | 1009.7 |
| 20260506121511 | 72 | 90 | 4.0 | 15.0 | 0.00 | 0.00 | 0.01 | 88 | 1009.7 |
| 20260506120451 | 71 | 45 | 4.0 | 19.0 | 0.00 | 0.00 | 0.01 | 88 | 1009.7 |
| 20260506115941 | 71 | 90 | 3.0 | 19.0 | 0.00 | 0.00 | 0.01 | 88 | 1009.9 |
| 20260506115430 | 71 | 0 | 4.0 | 15.0 | 0.00 | 0.00 | 0.01 | 89 | 1009.8 |
| 20260506114921 | 71 | 0 | 4.0 | 15.0 | 0.00 | 0.00 | 0.01 | 89 | 1009.6 |
| 20260506114410 | 70 | 0 | 9.0 | 15.0 | 0.00 | 0.00 | 0.01 | 89 | 1009.6 |
| 20260506113900 | 70 | 0 | 5.0 | 14.0 | 0.00 | 0.00 | 0.01 | 90 | 1009.6 |
| 20260506113350 | 70 | 45 | 6.0 | 14.0 | 0.00 | 0.00 | 0.01 | 90 | 1009.4 |
| 20260506112840 | 69 | 0 | 5.0 | 17.0 | 0.00 | 0.00 | 0.01 | 91 | 1009.7 |
| 20260506112330 | 69 | 270 | 6.0 | 17.0 | 0.00 | 0.00 | 0.01 | 91 | 1009.4 |
| 20260506111820 | 69 | 0 | 6.0 | 14.0 | 0.00 | 0.00 | 0.01 | 91 | 1009.5 |
| 20260506111310 | 69 | 0 | 2.0 | 14.0 | 0.00 | 0.00 | 0.01 | 91 | 1009.3 |
| 20260506110250 | 69 | 135 | 6.0 | 13.0 | 0.00 | 0.00 | 0.01 | 91 | 1009.5 |
| 20260506105739 | 69 | 0 | 2.0 | 16.0 | 0.00 | 0.00 | 0.01 | 91 | 1009.5 |
| 20260506105229 | 69 | 0 | 5.0 | 17.0 | 0.00 | 0.00 | 0.01 | 92 | 1009.5 |
| 20260506104719 | 69 | 180 | 5.0 | 17.0 | 0.00 | 0.00 | 0.01 | 92 | 1009.4 |
| 20260506104209 | 69 | 90 | 4.0 | 12.0 | 0.00 | 0.00 | 0.01 | 92 | 1009.6 |
| 20260506103659 | 69 | 0 | 3.0 | 15.0 | 0.00 | 0.00 | 0.01 | 92 | 1009.5 |
| 20260506103149 | 69 | 0 | 7.0 | 15.0 | 0.00 | 0.00 | 0.01 | 92 | 1009.7 |
| 20260506102639 | 69 | 135 | 4.0 | 10.0 | 0.00 | 0.00 | 0.01 | 92 | 1009.9 |
| 20260506102128 | 69 | 90 | 2.0 | 10.0 | 0.00 | 0.00 | 0.01 | 92 | 1009.7 |
| 20260506101620 | 69 | 45 | 4.0 | 11.0 | 0.00 | 0.00 | 0.01 | 92 | 1009.8 |
| 20260506101108 | 69 | 90 | 4.0 | 11.0 | 0.00 | 0.00 | 0.01 | 92 | 1009.9 |
| 20260506100558 | 69 | 0 | 2.0 | 11.0 | 0.00 | 0.00 | 0.01 | 93 | 1009.8 |
| 20260506095538 | 68 | 45 | 8.0 | 15.0 | 0.00 | 0.00 | 0.01 | 93 | 1009.3 |
| 20260506095028 | 68 | 90 | 3.0 | 15.0 | 0.00 | 0.00 | 0.01 | 93 | 1009.3 |
| 20260506094518 | 68 | 45 | 5.0 | 17.0 | 0.00 | 0.00 | 0.01 | 93 | 1009.0 |
| 20260506093458 | 68 | 45 | 5.0 | 16.0 | 0.00 | 0.00 | 0.01 | 94 | 1008.9 |
| 20260506091928 | 68 | 0 | 8.0 | 18.0 | 0.00 | 0.00 | 0.01 | 94 | 1008.7 |
| 20260506090357 | 69 | 45 | 5.0 | 16.0 | 0.00 | 0.00 | 0.01 | 94 | 1009.2 |
| 20260506085847 | 69 | 0 | 5.0 | 11.0 | 0.00 | 0.00 | 0.01 | 95 | 1009.4 |
| 20260506085336 | 69 | 0 | 6.0 | 11.0 | 0.00 | 0.00 | 0.01 | 95 | 1009.2 |
| 20260506083806 | 69 | 0 | 4.0 | 14.0 | 0.00 | 0.00 | 0.01 | 95 | 1009.2 |
| 20260506083256 | 69 | 0 | 4.0 | 11.0 | 0.00 | 0.00 | 0.01 | 95 | 1009.4 |
| 20260506082746 | 69 | 180 | 4.0 | 11.0 | 0.00 | 0.00 | 0.01 | 95 | 1009.2 |
| 20260506082236 | 69 | 0 | 5.0 | 13.0 | 0.00 | 0.00 | 0.01 | 95 | 1009.2 |
| 20260506081730 | 69 | 45 | 2.0 | 13.0 | 0.00 | 0.00 | 0.01 | 95 | 1009.1 |
| 20260506081216 | 69 | 180 | 1.0 | 11.0 | 0.00 | 0.00 | 0.01 | 95 | 1009.5 |
| 20260506080715 | 69 | 135 | 2.0 | 11.0 | 0.00 | 0.00 | 0.01 | 95 | 1009.5 |
| 20260506080154 | 69 | 45 | 2.0 | 10.0 | 0.00 | 0.00 | 0.01 | 95 | 1009.5 |
| 20260506072546 | 68 | 0 | 2.0 | 6.0 | 0.00 | 0.00 | 0.01 | 95 | 1009.9 |
| 20260506071524 | 68 | 45 | 5.0 | 11.0 | 0.00 | 0.00 | 0.01 | 95 | 1010.1 |
| 20260506071018 | 68 | 90 | 2.0 | 11.0 | 0.00 | 0.00 | 0.01 | 95 | 1009.8 |
| 20260506070506 | 68 | 90 | 3.0 | 10.0 | 0.00 | 0.00 | 0.01 | 95 | 1010.0 |
| 20260506050513 | 67 | 45 | 1.0 | 8.0 | 0.00 | 0.01 | 0.00 | 95 | 1011.3 |
| 20260506044932 | 67 | 0 | 4.0 | 8.0 | 0.00 | 0.01 | 0.00 | 95 | 1010.8 |
| 20260506044432 | 66 | 45 | 2.0 | 5.0 | 0.00 | 0.01 | 0.00 | 95 | 1010.9 |
| 20260506043407 | 67 | 180 | 1.0 | 5.0 | 0.00 | 0.01 | 0.00 | 95 | 1010.8 |
| 20260506042853 | 67 | 90 | 0.0 | 4.0 | 0.00 | 0.01 | 0.00 | 95 | 1011.0 |
| 20260506041841 | 67 | 90 | 4.0 | 7.0 | 0.00 | 0.01 | 0.00 | 95 | 1011.2 |
| 20260506041322 | 67 | 90 | 2.0 | 4.0 | 0.00 | 0.01 | 0.00 | 95 | 1011.0 |
| 20260506040304 | 67 | 90 | 3.0 | 5.0 | 0.00 | 0.01 | 0.00 | 95 | 1011.1 |
| 20260506035251 | 67 | 90 | 0.0 | 4.0 | 0.00 | 0.01 | 0.00 | 95 | 1011.1 |
| 20260506033709 | 67 | 180 | 1.0 | 6.0 | 0.00 | 0.01 | 0.00 | 95 | 1011.1 |
| 20260506033158 | 68 | 0 | 2.0 | 7.0 | 0.00 | 0.01 | 0.00 | 95 | 1010.9 |
| 20260506032138 | 68 | 45 | 4.0 | 7.0 | 0.00 | 0.01 | 0.00 | 95 | 1011.0 |
| 20260506031117 | 69 | 90 | 1.0 | 4.0 | 0.00 | 0.01 | 0.00 | 95 | 1011.0 |
| 20260506030608 | 69 | 90 | 1.0 | 5.0 | 0.00 | 0.01 | 0.00 | 95 | 1010.9 |
| 20260506030100 | 69 | 0 | 2.0 | 5.0 | 0.00 | 0.01 | 0.00 | 95 | 1010.8 |
| 20260506025548 | 69 | 270 | 1.0 | 8.0 | 0.00 | 0.01 | 0.52 | 95 | 1010.8 |
| 20260506025037 | 69 | 90 | 2.0 | 8.0 | 0.00 | 0.01 | 0.52 | 95 | 1010.7 |
| 20260506024527 | 69 | 0 | 2.0 | 10.0 | 0.00 | 0.01 | 0.52 | 95 | 1010.8 |
| 20260506024017 | 69 | 0 | 4.0 | 10.0 | 0.00 | 0.01 | 0.52 | 95 | 1010.8 |
| 20260506023509 | 69 | 90 | 5.0 | 8.0 | 0.00 | 0.01 | 0.52 | 95 | 1010.9 |
| 20260506023001 | 69 | 0 | 2.0 | 5.0 | 0.00 | 0.01 | 0.52 | 95 | 1010.8 |
| 20260506021940 | 69 | 90 | 1.0 | 5.0 | 0.00 | 0.01 | 0.52 | 95 | 1010.9 |
| 20260506020922 | 70 | 0 | 1.0 | 5.0 | 0.00 | 0.01 | 0.52 | 95 | 1010.6 |
| 20260506020411 | 70 | 0 | 2.0 | 6.0 | 0.00 | 0.01 | 0.52 | 95 | 1010.7 |
| 20260506015901 | 70 | 90 | 2.0 | 6.0 | 0.00 | 0.01 | 0.52 | 95 | 1011.0 |
| 20260506015349 | 70 | 0 | 2.0 | 5.0 | 0.00 | 0.01 | 0.52 | 95 | 1010.9 |
| 20260506005656 | 69 | 90 | 2.0 | 8.0 | 0.01 | 0.01 | 0.52 | 95 | 1011.6 |
| 20260506004634 | 70 | 90 | 5.0 | 13.0 | 0.01 | 0.01 | 0.52 | 95 | 1011.3 |
| 20260506004124 | 70 | 135 | 9.0 | 12.0 | 0.01 | 0.01 | 0.52 | 95 | 1011.4 |
| 20260506003613 | 70 | 90 | 4.0 | 10.0 | 0.00 | 0.00 | 0.51 | 95 | 1011.5 |
| 20260506003104 | 70 | 90 | 4.0 | 8.0 | 0.00 | 0.00 | 0.51 | 95 | 1011.4 |
| 20260506002554 | 70 | 90 | 4.0 | 6.0 | 0.00 | 0.00 | 0.51 | 95 | 1011.5 |
| 20260506002044 | 70 | 90 | 0.0 | 5.0 | 0.00 | 0.00 | 0.51 | 95 | 1011.5 |
| 20260506001533 | 70 | 135 | 3.0 | 7.0 | 0.00 | 0.00 | 0.51 | 95 | 1011.2 |